TimeCST,TemperatureF,Dew PointF,Humidity,Sea Level PressureIn,VisibilityMPH,Wind Direction,Wind SpeedMPH,Gust SpeedMPH,PrecipitationIn,Events,Conditions,WindDirDegrees,DateUTC
12:53 AM,32.0,28.9,88,30.40,10.0,Calm,Calm,-,N/A,,Clear,0,2012-11-28 06:53:00
1:53 AM,32.0,28.9,88,30.39,10.0,Calm,Calm,-,N/A,,Clear,0,2012-11-28 07:53:00
2:53 AM,30.0,28.0,92,30.40,10.0,Calm,Calm,-,N/A,,Clear,0,2012-11-28 08:53:00
3:53 AM,30.9,28.0,89,30.39,10.0,Calm,Calm,-,N/A,,Clear,0,2012-11-28 09:53:00
4:53 AM,32.0,28.9,88,30.41,10.0,Calm,Calm,-,N/A,,Clear,0,2012-11-28 10:53:00
5:53 AM,30.9,28.0,89,30.44,9.0,Calm,Calm,-,N/A,,Clear,0,2012-11-28 11:53:00
6:53 AM,30.0,27.0,88,30.46,9.0,Calm,Calm,-,N/A,,Clear,0,2012-11-28 12:53:00
7:53 AM,32.0,30.0,92,30.49,7.0,Calm,Calm,-,N/A,,Clear,0,2012-11-28 13:53:00
8:53 AM,39.9,34.0,79,30.50,10.0,East,3.5,-,N/A,,Clear,100,2012-11-28 14:53:00
9:53 AM,45.0,35.1,68,30.51,10.0,ESE,4.6,-,N/A,,Clear,110,2012-11-28 15:53:00
10:53 AM,50.0,34.0,54,30.50,10.0,Calm,Calm,-,N/A,,Clear,0,2012-11-28 16:53:00
11:53 AM,53.1,33.1,47,30.46,10.0,Variable,3.5,-,N/A,,Clear,0,2012-11-28 17:53:00
12:53 PM,55.9,32.0,40,30.43,10.0,Variable,3.5,-,N/A,,Clear,0,2012-11-28 18:53:00
1:53 PM,57.9,30.9,36,30.40,10.0,Variable,3.5,-,N/A,,Clear,0,2012-11-28 19:53:00
2:53 PM,59.0,27.0,29,30.38,10.0,Variable,3.5,-,N/A,,Clear,0,2012-11-28 20:53:00
3:53 PM,57.0,28.0,33,30.38,10.0,East,3.5,-,N/A,,Clear,100,2012-11-28 21:53:00
4:53 PM,51.1,32.0,48,30.38,10.0,East,3.5,-,N/A,,Clear,100,2012-11-28 22:53:00
5:53 PM,46.9,32.0,56,30.38,10.0,Calm,Calm,-,N/A,,Clear,0,2012-11-28 23:53:00
6:53 PM,44.1,34.0,68,30.39,10.0,Calm,Calm,-,N/A,,Clear,0,2012-11-29 00:53:00
7:53 PM,41.0,32.0,70,30.39,10.0,Calm,Calm,-,N/A,,Clear,0,2012-11-29 01:53:00
8:53 PM,39.0,30.9,73,30.39,10.0,Calm,Calm,-,N/A,,Clear,0,2012-11-29 02:53:00
9:53 PM,36.0,30.0,79,30.38,10.0,SE,3.5,-,N/A,,Clear,140,2012-11-29 03:53:00
10:53 PM,35.1,30.0,82,30.38,10.0,Calm,Calm,-,N/A,,Clear,0,2012-11-29 04:53:00
11:53 PM,36.0,30.0,79,30.36,10.0,Calm,Calm,-,N/A,,Clear,0,2012-11-29 05:53:00